Regional Weather Roundup
Issued by NWS

Home | Current Version | Previous Version | Graphics & Text | Print | Product List | Glossary Off
Versions: 1 2 3 4 5 6 7 8 9 10 11 12 13 14 15 16 17 18 19 20 21 22 23 24 25 26 27

000
ASUS45 KBOU 231007
RWRCO

WEATHER ROUNDUP FOR COLORADO
NATIONAL WEATHER SERVICE DENVER/BOULDER CO
400 AM MDT SUN APR 23 2017

NOTE: "FAIR" INDICATES FEW OR NO CLOUDS BELOW 12000 FEET WITH NO
SIGNIFICANT WEATHER AND/OR OBSTRUCTIONS TO VISIBILITY.

COZ001>005-013-030-031-231100-
...NORTHWEST COLORADO...

CITY           SKY/WX    TMP DP  RH WIND       PRES   REMARKS
CRAIG          FAIR      29  24  82 CALM      30.10F
HAYDEN         FAIR      34  21  60 E10       30.11F WCI  26
MEEKER         FAIR      30  25  81 NE3       30.11F
MOUNT WERNER   NOT AVBL
STEAMBOAT SPGS FAIR      30  24  80 CALM      30.13F
WALDEN           N/A     30  21  69 SE7       30.15S WCI  23
$$

COZ006>008-011-231100-
...WEST CENTRAL VALLEYS...

CITY           SKY/WX    TMP DP  RH WIND       PRES   REMARKS
GRAND JUNCTION FAIR      44  24  45 SE9       30.06F
MONTROSE       FAIR      37  23  56 SE6       30.13F
EAGLE          FAIR      31  23  72 CALM      30.19S
RIFLE          FAIR      36  27  69 CALM      30.12S
DELTA          FAIR      42  23  46 E5        30.11S
NUCLA          FAIR      37  19  48 E9        30.14S
$$

COZ017>023-064>068-231100-
...SOUTHWEST COLORADO...

CITY           SKY/WX    TMP DP  RH WIND       PRES   REMARKS
DURANGO        FAIR      34  19  54 CALM      30.19S
CORTEZ         FAIR      29  22  75 CALM      30.13F
PAGOSA SPRINGS FAIR      31  20  65 CALM      30.24S
TELLURIDE      FAIR      41   8  25 SE8       30.22F
WOLF CREEK PAS FAIR      27  12  54 SW23      30.37S WCI  12
$$

COZ009-010-012-014-032>034-037-058>063-231100-
...CENTRAL COLORADO...

CITY           SKY/WX    TMP DP  RH WIND       PRES   REMARKS
ASPEN          FAIR      28  21  75 S3        30.15F
BUENA VISTA    FAIR      25  22  86 W5        30.21S WCI  19
COPPER MTN     FAIR      34   1  25 MISG      30.28F
BERTHOUD PASS  FAIR      23  10  58 NW22G32   30.25F WCI   8
COTTONWOOD PAS FAIR      36  21  55 NW3       30.22F
GUNNISON       FAIR      27  21  78 CALM      30.22F
KREMMLING      FAIR      32  28  86 CALM      30.19S
LEADVILLE      FAIR      21  18  88 NW5       30.21F WCI  15
MONARCH PASS   FAIR      27  18  69 SW26      30.38F WCI  11
SALIDA         FAIR      33  28  80 N5        30.27F WCI  29
SUNLIGHT       FAIR      30  18  59 SW16G23   30.28S WCI  19
WILKERSON PASS MOCLDY    27  21  80 SW15G28   30.24R WCI  15
$$

COZ069>075-231100-
...SAN LUIS VALLEY/SANGRE DE CRISTO MOUNTAINS...

CITY           SKY/WX    TMP DP  RH WIND       PRES   REMARKS
ALAMOSA        FAIR      30  25  81 E3        30.22F
LA VETA PASS   LGT SNOW  28  27  93 SW40G54   30.28F WCI  11
SAGUACHE       FAIR      27  18  69 N6        30.25R WCI  20
$$

COZ035-036-038>040-231100-
...NORTHERN COLORADO FRONT RANGE...

CITY           SKY/WX    TMP DP  RH WIND       PRES   REMARKS
DENVER INTL AP FAIR      43  30  60 S18       30.02F
DMNS CITY PARK   N/A     43  29  58 SE7       30.03F
AURORA         PTCLDY    43  35  72 S21       30.02F
FRONT RANGE AP FAIR      45  32  61 S17G32    30.04F
ERIE MUNI ARPT FAIR      35  32  90 CALM      30.03F
BOULDER MUN AP FAIR      37  32  81 CALM      30.03S
CENTENNIAL     FAIR      41  30  65 S12       30.04F
BROOMFIELD     FAIR      43  28  56 N3        30.03F
FORT COLLINS   FAIR      37  34  89 N7        30.05F
LONGMONT       FAIR      38  32  78 N6        30.05F
$$

COZ041-046-047-076>085-087-088-231100-
...PIKES PEAK/PALMER DIVIDE AND SOUTHERN FOOTHILLS...

CITY           SKY/WX    TMP DP  RH WIND       PRES   REMARKS
COLO. SPRINGS  FAIR      35  31  85 E10       30.12F WCI  27
A. F. ACADEMY  FAIR      35  29  81 CALM      30.12F
SCHRIEVER AFB  FAIR      33  31  92 CALM      30.14F
ELLICOTT       FAIR     N/A N/A N/A S7        30.12F
FALCON         FAIR      33  29  83 S10       30.15F WCI  25
FORT CARSON    FAIR      37  31  79 SE13      30.11F
LIMON          FAIR      37  32  82 S13       30.12F
MONUMENT HILL  FAIR      34  28  80 S18G28    30.10F WCI  23
TRINIDAD       FAIR      38  29  70 W9        30.15F
$$

COZ042>045-048>051-090-091-231100-
...NORTHEAST COLORADO...

CITY           SKY/WX    TMP DP  RH WIND       PRES   REMARKS
GREELEY ARPT   FAIR      36  33  89 NE8       30.05F
AKRON          FAIR      39  31  72 S15       30.08F
BURLINGTON     NOT AVBL
WRAY           NOT AVBL
STERLING       FAIR      36  34  93 S8        30.07F
HOLYOKE        FAIR      39  34  81 S10       30.11F
FORT MORGAN    FAIR      36  31  83 SE6       30.08S
$$

COZ086-089-092>099-231100-
...SOUTHEAST COLORADO...

CITY           SKY/WX    TMP DP  RH WIND       PRES   REMARKS
PUEBLO         FAIR      37  34  89 CALM      30.12F
LA JUNTA       FAIR      42  32  67 S8        30.14F
LAMAR          FAIR      40  32  73 S14       30.15F
SPRINGFIELD      N/A     31  27  85 SW6       30.19F WCI  25
$$




USA.gov is the U.S. government's official web portal to all federal, state and local government web resources and services.